GW5101 Weather Reports


time (UTC)temp
C
wind
direction
speed
KPH
gust
KPH
rain 1hr
cm
rain 24hr
cm
rain mn
cm
humidity
%
barometer
mb
20260906162151 25 305 1.6 3.2 0.00 0.00 0.00 58 1024.3
20260906161647 25 174 3.2 4.8 0.00 0.00 0.00 60 1024.4
20260906161145 25 313 4.8 4.8 0.00 0.00 0.00 59 1024.4
20260906160645 25 246 3.2 4.8 0.00 0.00 0.00 61 1024.4
20260906160144 25 166 3.2 11.3 0.00 0.00 0.00 62 1024.4
20260906155642 24 221 3.2 9.7 0.00 0.00 0.00 64 1024.3
20260906155138 24 169 6.4 9.7 0.00 0.00 0.00 66 1024.5
20260906154633 23 173 3.2 6.4 0.00 0.00 0.00 66 1024.5
20260906154132 23 160 3.2 9.7 0.00 0.00 0.00 65 1024.6
20260906153632 23 175 1.6 4.8 0.00 0.00 0.00 64 1024.8
20260906153127 23 160 3.2 4.8 0.00 0.00 0.00 63 1024.9
20260906152627 23 192 3.2 4.8 0.00 0.00 0.00 65 1024.6
20260906152120 23 182 4.8 4.8 0.00 0.00 0.00 63 1024.9
20260906151615 23 190 3.2 4.8 0.00 0.00 0.00 65 1024.9
20260906151112 22 180 1.6 3.2 0.00 0.00 0.00 65 1025.0
20260906150607 23 172 3.2 4.8 0.00 0.00 0.00 66 1024.8
20260906145600 22 86 0.0 4.8 0.00 0.00 0.00 63 1024.5
20260906145055 22 188 3.2 6.4 0.00 0.00 0.00 65 1024.6
20260906144550 22 170 6.4 9.7 0.00 0.00 0.00 67 1024.7
20260906144045 22 177 6.4 6.4 0.00 0.00 0.00 68 1024.6
20260906143540 22 179 6.4 9.7 0.00 0.00 0.00 68 1024.4
20260906143037 22 164 6.4 6.4 0.00 0.00 0.00 70 1024.7
20260906142536 22 155 4.8 6.4 0.00 0.00 0.00 71 1024.4
20260906142032 21 178 4.8 6.4 0.00 0.00 0.00 72 1024.4
20260906141531 21 170 8.0 11.3 0.00 0.00 0.00 72 1024.4
20260906141026 21 178 4.8 4.8 0.00 0.00 0.00 75 1024.5
20260906140520 21 199 1.6 6.4 0.00 0.00 0.00 77 1024.6
20260906140019 21 185 3.2 6.4 0.00 0.00 0.00 77 1024.5
20260906135516 21 177 1.6 6.4 0.00 0.00 0.00 79 1024.7
20260906135013 20 161 3.2 4.8 0.00 0.00 0.00 83 1024.7
20260906134508 20 167 3.2 3.2 0.00 0.00 0.00 85 1024.8
20260906134008 20 176 3.2 4.8 0.00 0.00 0.00 87 1024.8
20260906133504 20 181 3.2 9.7 0.00 0.00 0.00 88 1024.7
20260906132959 20 172 3.2 6.4 0.00 0.00 0.00 90 1024.8
20260906132454 19 171 4.8 6.4 0.00 0.00 0.00 91 1025.0
20260906131950 19 174 3.2 4.8 0.00 0.00 0.00 93 1024.9
20260906131445 18 178 3.2 4.8 0.00 0.00 0.00 94 1024.8
20260906130941 18 174 3.2 3.2 0.00 0.00 0.00 96 1024.9
20260906130440 18 185 1.6 3.2 0.00 0.00 0.00 96 1024.8
20260906125934 18 182 1.6 3.2 0.00 0.00 0.00 97 1024.8
20260906125431 18 182 1.6 3.2 0.00 0.00 0.00 98 1024.8
20260906124931 17 183 1.6 3.2 0.00 0.00 0.00 98 1024.7
20260906124427 17 232 1.6 1.6 0.00 0.00 0.00 98 1024.9
20260906123921 17 278 0.0 0.0 0.00 0.00 0.00 98 1024.8
20260906123415 16 268 1.6 1.6 0.00 0.00 0.00 98 1024.8
20260906122915 16 284 0.0 0.0 0.00 0.00 0.00 98 1024.8
20260906122410 16 284 0.0 0.0 0.00 0.00 0.00 97 1024.6
20260906121907 16 284 0.0 0.0 0.00 0.00 0.00 97 1024.6
20260906121403 16 284 0.0 0.0 0.00 0.00 0.00 97 1024.6
20260906120859 16 284 0.0 0.0 0.00 0.00 0.00 97 1024.7
20260906120354 16 284 0.0 0.0 0.00 0.00 0.00 98 1024.4
20260906115850 16 284 0.0 0.0 0.00 0.00 0.00 98 1024.3
20260906115345 16 284 0.0 0.0 0.00 0.00 0.00 98 1024.2
20260906114844 16 284 0.0 0.0 0.00 0.00 0.00 98 1024.1
20260906114340 16 284 0.0 0.0 0.00 0.00 0.00 98 1024.1
20260906113835 16 283 0.0 0.0 0.00 0.00 0.00 98 1023.9
20260906113334 16 284 0.0 0.0 0.00 0.00 0.00 97 1023.9
20260906112830 16 284 0.0 0.0 0.00 0.00 0.00 97 1024.0
20260906112326 16 284 0.0 0.0 0.00 0.00 0.00 97 1023.9
20260906111826 16 285 0.0 0.0 0.00 0.00 0.00 97 1023.8
20260906111325 16 285 0.0 0.0 0.00 0.00 0.00 97 1024.0
20260906110820 16 285 0.0 0.0 0.00 0.00 0.00 96 1023.8
20260906110316 17 285 0.0 0.0 0.00 0.00 0.00 97 1023.8
20260906105815 17 285 0.0 0.0 0.00 0.00 0.00 97 1023.5
20260906105311 17 285 0.0 0.0 0.00 0.00 0.00 96 1023.5
20260906104807 17 285 0.0 0.0 0.00 0.00 0.00 97 1023.6
20260906104305 17 284 0.0 0.0 0.00 0.00 0.00 97 1023.6
20260906103803 17 284 0.0 0.0 0.00 0.00 0.00 97 1023.6
20260906103258 17 284 0.0 0.0 0.00 0.00 0.00 97 1023.5
20260906102754 18 284 0.0 0.0 0.00 0.00 0.00 97 1023.3
20260906102252 18 198 1.6 3.2 0.00 0.00 0.00 98 1023.5
20260906101748 17 267 1.6 1.6 0.00 0.00 0.00 97 1023.3
20260906101248 17 290 0.0 0.0 0.00 0.00 0.00 97 1023.2
20260906100743 17 290 0.0 0.0 0.00 0.00 0.00 97 1023.4
20260906100242 17 290 0.0 0.0 0.00 0.00 0.00 96 1023.4
20260906095738 17 290 0.0 0.0 0.00 0.00 0.00 96 1023.6
20260906095233 17 290 0.0 0.0 0.00 0.00 0.00 96 1023.4
20260906094732 17 290 0.0 0.0 0.00 0.00 0.00 96 1023.5
20260906094227 17 290 0.0 0.0 0.00 0.00 0.00 96 1023.5
20260906093724 17 290 0.0 0.0 0.00 0.00 0.00 96 1023.4
20260906093219 17 290 0.0 0.0 0.00 0.00 0.00 95 1023.5
20260906092715 16 290 0.0 0.0 0.00 0.00 0.00 95 1023.4
20260906092214 16 290 0.0 0.0 0.00 0.00 0.00 94 1023.4
20260906091711 16 290 0.0 0.0 0.00 0.00 0.00 95 1023.4
20260906091207 16 290 0.0 0.0 0.00 0.00 0.00 95 1023.5
20260906090703 16 290 0.0 0.0 0.00 0.00 0.00 95 1023.5
20260906090202 16 290 0.0 0.0 0.00 0.00 0.00 94 1023.4
20260906085701 16 290 0.0 0.0 0.00 0.00 0.00 94 1023.4
20260906085200 16 290 0.0 0.0 0.00 0.00 0.00 95 1023.4
20260906084655 16 290 0.0 0.0 0.00 0.00 0.00 95 1023.4
20260906084154 16 290 0.0 0.0 0.00 0.00 0.00 95 1023.4
20260906083649 16 290 0.0 0.0 0.00 0.00 0.00 95 1023.3
20260906083145 16 290 0.0 0.0 0.00 0.00 0.00 95 1023.3
20260906082640 16 290 0.0 0.0 0.00 0.00 0.00 94 1023.3
20260906082135 16 290 0.0 0.0 0.00 0.00 0.00 94 1023.4
20260906081631 16 290 0.0 0.0 0.00 0.00 0.00 94 1023.3
20260906081126 16 290 0.0 0.0 0.00 0.00 0.00 95 1023.6
20260906080623 16 290 0.0 0.0 0.00 0.00 0.00 94 1023.4
20260906080119 16 290 0.0 0.0 0.00 0.00 0.00 94 1023.4
20260906075612 16 290 0.0 0.0 0.00 0.00 0.00 93 1023.4
20260906075107 16 290 0.0 0.0 0.00 0.00 0.00 93 1023.3
20260906074602 15 290 0.0 0.0 0.00 0.00 0.00 93 1023.4
20260906074101 15 290 0.0 0.0 0.00 0.00 0.00 92 1023.3
20260906073556 15 290 0.0 0.0 0.00 0.00 0.00 93 1023.3
20260906073052 15 290 0.0 0.0 0.00 0.00 0.00 94 1023.2
20260906072546 16 290 0.0 0.0 0.00 0.00 0.00 95 1023.1
20260906072042 16 290 0.0 0.0 0.00 0.00 0.00 95 1023.2
20260906071538 16 290 0.0 0.0 0.00 0.00 0.00 96 1023.2
20260906071033 16 290 0.0 0.0 0.00 0.00 0.00 96 1023.2
20260906070530 16 290 0.0 0.0 0.00 0.00 0.00 96 1023.2
20260906070025 16 290 0.0 0.0 0.00 0.00 0.00 96 1023.4
20260906065524 16 290 0.0 0.0 0.00 0.00 0.00 96 1023.2
20260906065020 15 290 0.0 0.0 0.00 0.00 0.00 95 1023.5
20260906064516 15 290 0.0 0.0 0.00 0.00 0.00 95 1023.6
20260906064017 15 290 0.0 0.0 0.00 0.00 0.00 95 1023.5
20260906063512 15 290 0.0 0.0 0.00 0.00 0.00 95 1023.8
20260906063008 15 290 0.0 0.0 0.00 0.00 0.00 95 1023.6
20260906062502 15 290 0.0 0.0 0.00 0.00 0.00 95 1023.4
20260906061957 16 290 0.0 0.0 0.00 0.00 0.00 94 1023.2
20260906061453 15 290 0.0 0.0 0.00 0.00 0.00 94 1023.5
20260906060947 15 290 0.0 0.0 0.00 0.00 0.00 93 1023.5
20260906060444 16 290 0.0 0.0 0.00 0.00 0.00 94 1023.5
20260906055941 16 290 0.0 0.0 0.00 0.00 0.00 94 1023.4
20260906055436 16 290 0.0 0.0 0.00 0.00 0.00 93 1023.0
20260906054932 16 290 0.0 0.0 0.00 0.00 0.00 94 1022.9
20260906054426 16 288 0.0 1.6 0.00 0.00 0.00 95 1022.9
20260906053922 16 19 0.0 0.0 0.00 0.00 0.00 93 1023.0
20260906053418 16 19 0.0 0.0 0.00 0.00 0.00 94 1022.9
20260906052914 16 19 0.0 0.0 0.00 0.00 0.00 94 1022.9
20260906052410 16 19 0.0 0.0 0.00 0.00 0.00 93 1022.8
20260906051906 16 19 0.0 0.0 0.00 0.00 0.00 93 1022.6
20260906051406 16 19 0.0 0.0 0.00 0.00 0.00 93 1022.8
20260906050902 17 19 0.0 0.0 0.00 0.00 0.00 92 1022.9
20260906050357 17 19 0.0 0.0 0.00 0.00 0.00 92 1022.9
20260906045855 17 19 0.0 0.0 0.00 0.00 0.00 92 1023.0
20260906045349 17 19 0.0 0.0 0.00 0.00 0.00 92 1023.1
20260906044845 17 19 0.0 0.0 0.00 0.00 0.00 92 1023.0
20260906044345 17 19 0.0 0.0 0.00 0.00 0.00 93 1023.1
20260906043841 17 19 0.0 0.0 0.00 0.00 0.00 92 1022.9
20260906043337 17 19 0.0 0.0 0.00 0.00 0.00 92 1023.2
20260906042832 17 19 0.0 0.0 0.00 0.00 0.00 92 1023.1
20260906042331 17 19 0.0 0.0 0.00 0.00 0.00 92 1022.9
20260906041826 17 19 0.0 0.0 0.00 0.00 0.00 92 1022.5
20260906041322 17 19 0.0 0.0 0.00 0.00 0.00 91 1022.6
20260906040817 17 19 0.0 0.0 0.00 0.00 0.00 91 1022.8
20260906040312 17 19 0.0 0.0 0.00 0.00 0.00 91 1022.6
20260906035808 17 19 0.0 0.0 0.00 0.00 0.00 91 1022.4
20260906035306 17 19 0.0 0.0 0.00 0.00 0.00 91 1022.1
20260906034758 17 19 0.0 0.0 0.00 0.00 0.00 91 1022.2
20260906034257 17 19 0.0 0.0 0.00 0.00 0.00 91 1022.2
20260906033753 17 19 0.0 0.0 0.00 0.00 0.00 91 1022.1
20260906033252 17 19 0.0 0.0 0.00 0.00 0.00 91 1021.9
20260906032749 17 19 0.0 0.0 0.00 0.00 0.00 91 1021.8
20260906032249 17 19 0.0 0.0 0.00 0.00 0.00 90 1022.1
20260906031744 17 19 0.0 0.0 0.00 0.00 0.00 90 1022.1
20260906031241 17 19 0.0 0.0 0.00 0.00 0.00 90 1022.4
20260906030740 17 19 0.0 0.0 0.00 0.00 0.00 90 1022.0
20260906030235 17 19 0.0 0.0 0.00 0.00 0.00 90 1021.9
20260906025734 17 19 0.0 0.0 0.00 0.00 0.00 90 1021.9
20260906025229 17 19 0.0 0.0 0.00 0.00 0.00 89 1021.9
20260906024728 17 19 0.0 0.0 0.00 0.00 0.00 88 1021.8
20260906024227 18 19 0.0 0.0 0.00 0.00 0.00 88 1022.0
20260906023723 18 19 0.0 0.0 0.00 0.00 0.00 88 1021.7
20260906023218 18 19 0.0 0.0 0.00 0.00 0.00 88 1021.8
20260906022714 18 19 0.0 0.0 0.00 0.00 0.00 88 1021.7
20260906022209 18 19 0.0 0.0 0.00 0.00 0.00 87 1021.7
20260906021705 18 19 0.0 0.0 0.00 0.00 0.00 87 1021.7
20260906021203 18 19 0.0 0.0 0.00 0.00 0.00 87 1021.8
20260906020659 18 19 0.0 0.0 0.00 0.00 0.00 87 1021.6
20260906020153 18 19 0.0 0.0 0.00 0.00 0.00 87 1021.5
20260906015647 18 19 0.0 0.0 0.00 0.00 0.00 87 1021.6
20260906015146 18 19 0.0 0.0 0.00 0.00 0.00 86 1021.5
20260906014646 18 19 0.0 0.0 0.00 0.00 0.00 85 1021.6
20260906014142 18 19 0.0 0.0 0.00 0.00 0.00 85 1021.6
20260906013638 18 19 0.0 0.0 0.00 0.00 0.00 85 1021.6
20260906013133 18 19 0.0 0.0 0.00 0.00 0.00 84 1021.6
20260906012633 19 19 0.0 0.0 0.00 0.00 0.00 84 1021.7
20260906012128 19 19 0.0 0.0 0.00 0.00 0.00 84 1021.5
20260906011624 19 19 0.0 0.0 0.00 0.00 0.00 84 1021.6
20260906011124 19 19 0.0 0.0 0.00 0.00 0.00 83 1021.6
20260906010620 20 20 0.0 0.0 0.00 0.00 0.00 83 1021.5
20260906010116 20 20 0.0 0.0 0.00 0.00 0.00 83 1021.5
20260906005615 20 20 0.0 0.0 0.00 0.00 0.00 82 1021.6
20260906005114 20 20 0.0 0.0 0.00 0.00 0.00 82 1021.6
20260906004614 20 20 1.6 1.6 0.00 0.00 0.00 81 1021.7
20260906004109 20 20 1.6 1.6 0.00 0.00 0.00 80 1021.7
20260906003604 20 20 0.0 0.0 0.00 0.00 0.00 80 1021.7
20260906003101 20 20 0.0 1.6 0.00 0.00 0.00 79 1021.7
20260906002600 21 22 1.6 1.6 0.00 0.00 0.00 79 1021.7
20260906002055 21 16 1.6 1.6 0.00 0.00 0.00 78 1021.7
20260906001550 21 16 0.0 0.0 0.00 0.00 0.00 77 1021.7
20260906001045 21 17 0.0 3.2 0.00 0.00 0.00 77 1021.6
20260906000541 21 6 0.0 1.6 0.00 0.00 0.00 76 1021.6
20260906000036 21 6 0.0 1.6 0.00 0.00 0.00 76 1021.3
20260905235535 22 358 1.6 1.6 0.00 0.00 0.00 75 1021.5
20260905235031 22 20 1.6 3.2 0.00 0.00 0.00 74 1021.6
20260905234526 22 4 0.0 0.0 0.00 0.00 0.00 75 1021.3
20260905234021 22 356 0.0 1.6 0.00 0.00 0.00 75 1021.5
20260905233515 22 0 0.0 1.6 0.00 0.00 0.00 75 1021.2
20260905233015 22 354 0.0 0.0 0.00 0.00 0.00 75 1021.3
20260905232510 22 352 0.0 0.0 0.00 0.00 0.00 74 1021.2
20260905232006 23 352 1.6 1.6 0.00 0.00 0.00 75 1021.1
20260905231501 23 23 1.6 3.2 0.00 0.00 0.00 75 1021.2
20260905230957 23 9 0.0 1.6 0.00 0.00 0.00 75 1021.3
20260905230456 23 1 1.6 1.6 0.00 0.00 0.00 74 1021.2
20260905225954 23 14 3.2 3.2 0.00 0.00 0.00 73 1021.2
20260905225449 24 353 0.0 1.6 0.00 0.00 0.00 72 1021.5
20260905224944 24 5 1.6 3.2 0.00 0.00 0.00 72 1021.5
20260905224440 25 9 1.6 4.8 0.00 0.00 0.00 71 1021.3
20260905223939 25 337 1.6 3.2 0.00 0.00 0.00 70 1021.3
20260905223437 25 330 0.0 1.6 0.00 0.00 0.00 68 1021.3
20260905222932 25 13 1.6 3.2 0.00 0.00 0.00 69 1021.3
20260905222431 26 315 0.0 0.0 0.00 0.00 0.00 68 1021.3
20260905221927 26 35 3.2 4.8 0.00 0.00 0.00 68 1021.3
20260905221424 26 303 0.0 3.2 0.00 0.00 0.00 67 1021.1
20260905220920 26 336 1.6 3.2 0.00 0.00 0.00 67 1021.2
20260905220415 25 318 0.0 1.6 0.00 0.00 0.00 68 1021.3
20260905215914 26 325 0.0 0.0 0.00 0.00 0.00 68 1021.2
20260905215410 25 322 0.0 4.8 0.00 0.00 0.00 70 1021.3
20260905214906 26 4 1.6 6.4 0.00 0.00 0.00 68 1021.7
20260905214402 26 343 0.0 3.2 0.00 0.00 0.00 69 1021.5
20260905213856 26 7 1.6 4.8 0.00 0.00 0.00 68 1021.6
20260905213353 26 346 0.0 1.6 0.00 0.00 0.00 69 1021.5
20260905212848 25 348 0.0 1.6 0.00 0.00 0.00 70 1021.3
20260905212348 25 348 0.0 3.2 0.00 0.00 0.00 72 1021.5
20260905211841 26 16 1.6 3.2 0.00 0.00 0.00 70 1021.3
20260905211337 25 359 0.0 3.2 0.00 0.00 0.00 70 1021.3
20260905210833 25 9 1.6 3.2 0.00 0.00 0.00 70 1021.1
20260905210333 25 356 1.6 3.2 0.00 0.00 0.00 71 1021.1
20260905205832 25 336 0.0 1.6 0.00 0.00 0.00 72 1021.3
20260905205327 25 338 0.0 4.8 0.00 0.00 0.00 71 1021.7
20260905204826 25 16 1.6 3.2 0.00 0.00 0.00 70 1021.6
20260905204323 25 23 3.2 3.2 0.00 0.00 0.00 71 1021.8
20260905203821 26 12 1.6 3.2 0.00 0.00 0.00 69 1021.7
20260905203317 26 21 3.2 4.8 0.00 0.00 0.00 68 1021.9
20260905202813 26 348 1.6 3.2 0.00 0.00 0.00 68 1021.9
20260905202307 26 35 3.2 3.2 0.00 0.00 0.00 66 1021.8
20260905201803 26 356 1.6 3.2 0.00 0.00 0.00 65 1021.8
20260905201258 26 14 1.6 3.2 0.00 0.00 0.00 65 1021.8
20260905200753 26 340 0.0 0.0 0.00 0.00 0.00 65 1021.5
20260905200249 26 131 0.0 4.8 0.00 0.00 0.00 68 1021.7
20260905195747 26 354 1.6 3.2 0.00 0.00 0.00 65 1021.7
20260905195242 26 19 0.0 1.6 0.00 0.00 0.00 69 1021.7
20260905194738 26 17 1.6 1.6 0.00 0.00 0.00 67 1021.7
20260905194237 26 359 0.0 1.6 0.00 0.00 0.00 67 1021.6
20260905193736 26 346 0.0 1.6 0.00 0.00 0.00 67 1021.7
20260905193231 26 315 0.0 0.0 0.00 0.00 0.00 66 1021.6
20260905192727 26 353 1.6 1.6 0.00 0.00 0.00 66 1021.5
20260905192223 26 355 1.6 3.2 0.00 0.00 0.00 67 1021.7
20260905191722 26 343 1.6 1.6 0.00 0.00 0.00 66 1021.7
20260905191220 26 308 0.0 0.0 0.00 0.00 0.00 64 1021.8
20260905190719 26 299 0.0 1.6 0.00 0.00 0.00 68 1021.9
20260905190218 26 285 0.0 3.2 0.00 0.00 0.00 64 1022.0
20260905185717 25 290 0.0 0.0 0.00 0.00 0.00 71 1021.9
20260905185212 25 289 3.2 4.8 0.00 0.00 0.00 70 1022.2
20260905184707 25 304 1.6 1.6 0.00 0.00 0.00 71 1022.1
20260905184206 25 325 0.0 0.0 0.00 0.00 0.00 72 1022.1
20260905183705 25 294 1.6 3.2 0.00 0.00 0.00 70 1022.1
20260905183201 25 189 3.2 3.2 0.00 0.00 0.00 71 1022.0
20260905182700 24 325 0.0 1.6 0.00 0.00 0.00 73 1021.9
20260905182200 23 225 0.0 1.6 0.00 0.00 0.00 75 1021.9
20260905181655 24 208 3.2 3.2 0.00 0.00 0.00 74 1022.1
20260905181154 24 157 3.2 3.2 0.00 0.00 0.00 74 1022.0
20260905180649 24 343 0.0 0.0 0.00 0.00 0.00 73 1022.1
20260905180145 24 343 0.0 0.0 0.00 0.00 0.00 73 1022.3
20260905175643 25 316 0.0 0.0 0.00 0.00 0.00 72 1022.3
20260905175139 24 318 0.0 0.0 0.00 0.00 0.00 75 1022.3
20260905174635 24 343 0.0 3.2 0.00 0.00 0.00 75 1022.6
20260905174130 24 345 0.0 0.0 0.00 0.00 0.00 73 1022.4
20260905173626 23 345 0.0 0.0 0.00 0.00 0.00 74 1022.5
20260905173122 23 345 0.0 0.0 0.00 0.00 0.00 75 1022.5
20260905172620 23 345 0.0 1.6 0.00 0.00 0.00 75 1022.5
20260905172115 23 344 0.0 0.0 0.00 0.00 0.00 74 1022.6
20260905171612 23 344 0.0 1.6 0.00 0.00 0.00 75 1022.6
20260905171108 24 331 0.0 0.0 0.00 0.00 0.00 73 1022.6
20260905170604 23 319 0.0 0.0 0.00 0.00 0.00 77 1022.6
20260905170059 23 200 0.0 0.0 0.00 0.00 0.00 78 1022.6
20260905165559 23 200 0.0 0.0 0.00 0.00 0.00 77 1022.8
20260905165054 22 200 0.0 0.0 0.00 0.00 0.00 77 1022.7
20260905164549 22 200 0.0 0.0 0.00 0.00 0.00 78 1022.5
20260905164044 22 200 0.0 0.0 0.00 0.00 0.00 78 1022.9
20260905163540 22 200 0.0 0.0 0.00 0.00 0.00 79 1022.5
20260905163036 22 200 0.0 0.0 0.00 0.00 0.00 80 1022.8